User: anonymous   Login
Location: Beneden-Haastrecht
(52.0012°N, 4.7557°E)
Time: 02:01:55
(UTC+00:00)
Language:

DMSP B5D1-3 - Orbit

View from above orbital plane
View from above orbital plane
View from above satellite
View from above satellite

Ground track
Ground track

The orbit data is extracted from the following two-line orbital elements,

1 10820U 78042A   21018.42735775  .00000026  00000-0  24328-4 0  9995
2 10820  98.5294 215.5377 0010456 108.8109 251.4211 14.35357533229371
Epoch (UTC): 18 January 2021 10:15:23
Eccentricity: 0.0010456
inclination: 98.5294°
perigee height: 766 km
apogee height: 781 km
right ascension of ascending node: 215.5377°
argument of perigee: 108.8109°
revolutions per day: 14.35357533
mean anomaly at epoch: 251.4211°
orbit number at epoch: 22937

The dashed part of the orbit path shows where the satellite is in the earth's shadow,  

DLR